#timestamp,LO_Frequency,Hit,StdDev 
1638399615.8,286046999.4,N
1638399635.7,286046999.0,N
1638399655.5,286046996.6,Y
1638399675.4,286046998.6,P
1638399695.2,286046999.2,N
1638399715.0,286046996.8,P
1638399715.9,286046996.8,Y
1638399735.8,286047000.1,P
1638399755.6,286047001.2,N
1638399775.4,286046998.1,N
1638399795.3,286047000.0,N
1638399815.1,286046999.7,N
1638399835.9,286047002.8,N
1638399855.7,286047002.8,N
1638399875.5,286047000.5,N
1638399895.4,286046999.9,N
1638399915.2,286047002.6,N
1638399935.0,286047002.2,N
1638399935.9,286047002.2,N
1638399955.8,286047002.7,N
1638399975.6,286047000.4,N
1638399995.5,286047001.1,N
1638400015.3,286046998.1,N
1638400035.1,286046996.9,N
1638400055.9,286046999.6,N
1638400075.7,286046996.8,N
1638400095.5,286046998.9,N
1638400115.4,286046999.2,N
1638400135.2,286046996.9,N
1638400155.1,286046996.6,N
1638400156.0,286046996.6,N
1638400175.8,286047000.8,N
1638400195.6,286047000.9,N
1638400215.5,286046998.1,N
1638400235.3,286046999.4,N
1638400255.1,286047001.1,N
1638400275.9,286047000.0,N
1638400295.7,286047002.2,N
1638400315.6,286047001.3,N
1638400335.4,286047001.8,N
1638400355.2,286047000.6,N
1638400375.1,286047001.0,N
1638400376.0,286047001.0,N
1638400395.8,286046998.3,N
1638400415.6,286046999.3,N
1638400435.5,286046998.5,N
1638400455.3,286046996.9,N
1638400475.2,286046999.2,N
1638400495.9,286046996.6,N
1638400515.7,286046996.6,N
1638400535.6,286046996.9,N
1638400555.4,286046996.6,N
1638400575.2,286046996.7,N
1638400595.1,286046996.9,N
1638400596.0,286046996.9,N
1638400615.8,286046999.5,N
1638400635.7,286046998.8,N
1638400655.5,286046999.4,N
1638400675.3,286046999.6,N
1638400695.2,286046996.7,N
1638400715.0,286046999.5,N
1638400715.9,286046999.5,N
1638400735.7,286046996.9,N
1638400755.6,286046999.2,N
1638400775.4,286046998.8,N
1638400795.3,286046999.3,N
1638400815.1,286046999.4,N
1638400816.0,286046999.4,N
1638400835.8,286046999.4,N
1638400855.7,286046996.5,N
1638400875.5,286046999.1,N
1638400895.3,286046996.6,N
1638400915.2,286046999.5,N
1638400935.0,286046998.7,N
1638400935.9,286046998.7,N
1638400955.8,286046998.2,N
1638400975.6,286047000.4,N
1638400995.4,286047000.8,N
1638401015.3,286047001.1,N
1638401035.1,286046998.1,N
1638401055.9,286047000.2,N
1638401075.7,286047000.7,N
1638401095.5,286046999.3,N
1638401115.4,286046999.0,N
1638401135.2,286046999.1,N
1638401155.1,286046999.4,N
1638401156.0,286046999.4,N
1638401175.8,286046998.3,N
1638401195.6,286046996.6,N
1638401215.5,286046997.5,N
1638401235.3,286046997.3,N
1638401255.2,286046997.2,N
1638401275.9,286046997.7,N
1638401295.7,286046997.7,N
1638401315.6,286046998.0,N
1638401335.4,286046997.6,N
1638401355.3,286046996.2,Y
1638401375.1,286046997.8,P
1638401395.8,286046995.1,P
1638401415.7,286046997.8,N
1638401435.5,286046997.6,N
1638401455.4,286046995.1,Y
1638401475.2,286046997.6,P
1638401495.0,286046996.5,P
1638401495.9,286046996.5,P
1638401515.8,286046999.3,N
1638401535.6,286046998.6,N
1638401555.5,286046999.1,N
1638401575.3,286046999.4,N
1638401595.1,286046999.0,N
1638401615.9,286047000.6,N
1638401635.7,286047001.1,N
1638401655.5,286046998.3,N
1638401675.4,286046998.8,N
1638401695.2,286046998.7,N
1638401715.1,286046996.5,N
1638401716.0,286046996.5,N
1638401735.8,286046996.8,N
1638401755.6,286046996.5,N
1638401775.5,286046998.3,N
1638401795.3,286046998.8,N
1638401815.1,286046998.2,N
1638401835.9,286046998.5,N
1638401855.7,286046998.5,N
1638401875.6,286047000.7,N
1638401895.4,286046998.2,N
1638401915.2,286046998.5,N
1638401935.1,286047000.9,N
1638401936.0,286047000.9,N
1638401955.8,286047000.3,N
1638401975.7,286047000.3,N
1638401995.5,286046998.2,N
1638402015.3,286047000.5,N
1638402035.2,286047001.0,N
1638402055.9,286046998.6,N
1638402075.7,286047000.9,N
1638402095.6,286047001.2,N
1638402115.4,286047000.2,N
1638402135.2,286047001.2,N
1638402155.1,286046999.9,N
1638402156.0,286046999.9,N
1638402175.8,286047000.4,N
1638402195.7,286046998.1,N
1638402215.5,286047000.9,N
1638402235.3,286047000.2,N
1638402255.2,286047000.8,N
1638402275.0,286047000.8,N
1638402275.9,286047000.8,N
1638402295.8,286047000.6,N
1638402315.6,286047000.6,N
1638402335.4,286047001.0,N
1638402355.3,286047000.6,N
1638402375.1,286046998.7,N
1638402395.8,286047000.8,N
1638402415.7,286047000.5,N
1638402435.5,286047001.2,N
1638402455.4,286047000.9,N
1638402475.2,286047000.0,N
1638402495.0,286047002.0,N
1638402495.9,286047002.0,N
1638402515.8,286047001.6,N
1638402535.6,286047001.5,N
1638402555.5,286047000.5,N
1638402575.3,286046998.8,N
1638402595.1,286046998.7,N
1638402615.9,286046998.9,N
1638402635.7,286046998.5,N
1638402655.5,286046998.3,N
1638402675.4,286047001.1,N
1638402695.2,286047001.0,N
1638402715.1,286047000.2,N
1638402716.0,286047000.2,N
1638402735.8,286047002.6,N
1638402755.6,286047002.4,N
1638402775.5,286047002.2,N
1638402795.3,286047001.4,N
1638402815.1,286047001.6,N
1638402835.9,286047002.4,N
1638402855.7,286047000.0,N
1638402875.6,286046999.9,N
1638402895.4,286047000.0,N
1638402915.2,286047002.4,N
1638402935.1,286047001.9,N
1638402936.0,286047001.9,N
1638402955.8,286047001.8,N
1638402975.6,286047001.9,N
1638402995.5,286047002.0,N
1638403015.3,286047002.6,N
1638403035.1,286047001.5,N
1638403055.9,286047001.7,N
1638403075.7,286047002.0,N
1638403095.6,286047001.5,N
1638403115.4,286047002.1,N
1638403135.2,286047002.6,N
1638403155.1,286047002.3,N
1638403156.0,286047002.3,N
1638403175.8,286047002.8,N
1638403195.7,286047002.7,N
